Regional Weather Roundup
Issued by NWS Wakefield, VA

Home | Current Version | Previous Version | Text Only | Print | Product List | Glossary Off
Versions: 1 2 3 4 5 6 7 8 9 10 11 12 13 14 15 16 17 18 19 20 21 22 23 24 25 26 27

000
ASUS41 KAKQ 212215
RWRAKQ

REGIONAL WEATHER ROUNDUP
NATIONAL WEATHER SERVICE WAKEFIELD VA
600 PM EDT WED JUN 21 2017

Note: "fair" indicates few or no clouds below 12,000 feet with no
significant weather and/or obstructions to visibility. * = Denotes
station may not report precipitation (e.g., rain,snow,etc.),
thunder or fog.

VAZ042-051-052>054-056-212300-
NORTHERN VIRGINIA

CITY           SKY/WX    TMP DP  RH WIND       PRES   REMARKS
WASH NATIONAL  MOSUNNY   86  66  51 SW13G21   29.93S
DULLES         PTSUNNY   86  61  42 SW13      29.93F
FORT BELVOIR   SUNNY     86  67  52 S7        29.93S
QUANTICO       MOSUNNY   85  72  65 S12       29.94F
FREDERICKSBRG* MOSUNNY   88  68  52 S9        29.94S
STAFFORD*      MOSUNNY   84  70  63 CALM      29.99S
WARRENTON      MOSUNNY   90  57  32 W3        29.94F
CULPEPER*      SUNNY     87  63  44 SW3       29.95F
MANASSAS*      SUNNY     87  63  44 SW9       29.93F
LEESBURG*      MOSUNNY   88  64  45 SW9       29.94F
WINCHESTER     CLOUDY    82  57  42 SW8       29.95S
FRONT ROYAL*   MOCLDY    84  59  42 SW8       29.95R
LURAY*         CLOUDY    86  59  39 SW6       29.97F
$$

VAZ048-049-060>072-079>083-212300-
CENTRAL AND SOUTH CENTRAL VIRGINIA

CITY           SKY/WX    TMP DP  RH WIND       PRES   REMARKS
RICHMOND       MOSUNNY   87  66  49 SW14      29.97S
CHESTERFIELD*  NOT AVBL
PETERSBURG*    SUNNY     83  67  58 CALM      30.00R
HANOVER        MOSUNNY   86  66  51 SW9       29.99R
TAPPAHANNOCK*  MOSUNNY   86  62  45 S8        29.97S
QUINTON*       FAIR      86  69  57 MISG      29.97R
CHARLOTTSVILLE SUNNY     87  63  44 S6        29.96F
GORDONSVILLE*  CLEAR     87  64  45 SW6       29.95F
ORANGE*        MOSUNNY   86  66  51 CALM      29.96S
LOUISA*        SUNNY     90  68  48 SW3       29.96S
BUMPASS*       FAIR      86  68  53 SW6       29.97S
FARMVILLE*     CLOUDY    85  64  49 SW13      29.99R
CREWE*         FAIR      84  64  51 SW8       30.00S
FORT PICKETT*  FAIR      83  66  57 SW9G18    30.01S
CHASE CITY*    MOCLDY    82  72  72 SW3       30.04R
CLARKSVILLE*   FAIR      82  72  69 SW7       30.03R
SOUTH HILL*    CLOUDY    82  71  71 SW6       30.09R
LAWRENCEVILLE* FAIR      82  71  68 SW7       30.02S
EMPORIA*       CLOUDY    81  70  69 S5        30.03R
$$

VAZ088>098-212300-
SOUTHEAST VIRGINIA

CITY           SKY/WX    TMP DP  RH WIND       PRES   REMARKS
NORFOLK        SUNNY     86  68  54 SW14G21   29.98F
VIRGINIA BEACH MOSUNNY   83  68  60 SW14      29.98F
NORFOLK NAVAL  MOSUNNY   85  66  53 W12       30.01S
WEST POINT*    SUNNY     85  66  53 SW9       29.98S
SALUDA*        FAIR      84  71  65 SW9       29.96F
NEWPORT NEWS   MOSUNNY   84  70  62 SW10      29.99S
LANGLEY AFB    SUNNY     84  71  64 W14       29.99S
FORT EUSTIS    SUNNY     86  72  62 SW8       29.97S
WILLIAMSBURG*  SUNNY     88  72  58 SW7       29.99S
HR EXEC AP*    FAIR      82  70  65 SW9       29.97S
FRANKLIN*      CLOUDY    82  70  65 SW7       30.01S
US460-WAKEFLD  CLOUDY    84  72  67 SW8       30.00S
$$

VAZ020-022-025-037-045-212300-
WEST CENTRAL AND SOUTHWEST VIRGINIA

CITY           SKY/WX    TMP DP  RH WIND       PRES   REMARKS
STAUNTON*      SUNNY     83  61  46 SW8       30.02S
WAYNESBORO*    MOCLDY    82  61  48 SW5       30.02F
HOT SPRINGS VA CLOUDY    73  46  38 W13       30.17S
LYNCHBURG      CLOUDY    81  69  67 SW10      30.03R
DANVILLE       CLOUDY    82  69  64 SW10      30.04R
SOUTH BOSTON*  MOCLDY    83  67  59 SW6       30.04R
MARTINSVILLE   CLOUDY    79  69  71 S3        30.08S
ROANOKE        MOSUNNY   86  58  38 W10       30.05S
BLACKSBURG     CLOUDY    79  62  55 SW6       30.13S
DUBLIN*        MOSUNNY   82  55  38 W10       30.11S
MARION*        SUNNY     78  58  49 CALM      30.16S
HILLSVILLE*    PTSUNNY   78  51  39 CALM      30.13S
RICHLANDS*     NOT AVBL
WISE*          MOSUNNY   77  59  53 CALM      30.16S
ABINGDON*      CLOUDY    80  62  54 W8        30.13S
$$

MDZ021>025-VAZ099-100-212300-
SOUTHERN MARYLAND AND THE DELMARVA PENINSULA

CITY           SKY/WX    TMP DP  RH WIND       PRES   REMARKS
PATUXENT RIVER CLOUDY    82  69  64 SW7       29.95S
BAY BRIDGE APT SUNNY     86  66  51 SW13G18   29.92R
LEONARDTOWN    CLOUDY    81  66  61 S3        29.97S
DOVER          MOSUNNY   84  67  57 S14       29.89F
GEORGETOWN     SUNNY     82  64  54 SW12      29.95S
EASTON         MOSUNNY   84  66  54 S10       29.97S
CAMBRIDGE      SUNNY     82  70  65 VRB5      29.94F
SALISBURY      MOSUNNY   75  69  81 S12       29.96S
OCEAN CITY     CLOUDY    79  73  82 SW10      29.96F
WALLOPS ISLAND MOSUNNY   81  72  74 S8        29.97S
ACCOMACK*      SUNNY     84  70  64 SW9       29.98R
$$

NCZ012>017-030>032-212300-
NORTH CENTRAL AND EASTERN NORTH CAROLINA

CITY           SKY/WX    TMP DP  RH WIND       PRES   REMARKS
ROANOKE RAPIDS FAIR      81  70  69 SW7       30.02S
RALEIGH        PTSUNNY   83  70  64 W6        30.04F
ELIZABETH CITY CLOUDY    81  73  76 SW9       30.02S
AHOSKIE*         N/A     81  72  72 CALM      30.02F
EDENTON*       CLOUDY    83  72  69 CALM      30.03S
CURRITUCK*     CLOUDY    80  72  75 SW7       30.02S
KILL DEVIL HLS CLOUDY    80  70  72 CALM      30.02S
MANTEO         CLOUDY    81  70  68 SW12      30.03S
CAPE HATTERAS  MOSUNNY   79  71  76 SW15G23   30.05F
TARBORO*       NOT AVBL
GOLDSBORO      PTSUNNY   84  73  69 SW13      30.03S
WASHINGTON     SUNNY     83  71  65 W8        30.03S
GREENVILLE     CLOUDY    82  72  69 SW13      30.05S
NEW BERN       MOSUNNY   81  73  76 S10       30.06S
WILMINGTON     CLOUDY    79  71  76 SE7       30.08S
$$

VAZ048-212300-
ELSEWHERE

CITY           SKY/WX    TMP DP  RH WIND       PRES   REMARKS
HARRISBURG PA  PTSUNNY   74  65  73 SE3       29.93S
BALTIMORE      MOSUNNY   88  61  40 VRB7      29.90S
ANNAPOLIS      SUNNY     86  69  56 SW7       29.91S
ANDREWS AFB    SUNNY     84  65  52 SW12      29.93F
PHILADELPHIA   PTSUNNY   73  64  73 E6        29.92R
HENDERSON NC   MOSUNNY   79  67  67 SW12      30.04S
GREENSBORO     CLOUDY    82  67  60 W8        30.05F
ROCKY MOUNT    PTSUNNY   84  71  65 SW8       30.03F
$$

VAZ100-212300-
MARINE

STATION/POSITION TIME  TEMP    WIND        PRES    WAVE   SWELL
                       AIR SEA DIR/SP/G            HT/PER HT/PER
                 (UTC) (F)     (DEG/KT/KT) (MB)    (FT/S) (FT/S)
BRANDYWINE LGT   2148          240/ 21/ 23 1013.3F
CAPE MAY NJ      2148   77 74  230/ 11/ 13 1013.0F
LEWES DE         2148          250/  9/ 16 1013.4F
15NM E FENWICK I 2150   71 67  200/ 17/ 21 1014.1F   3/ 4   2/13
OCEAN-CITY-INLET 2148   66 63  220/ 12/ 14 1014.7F
WACHAPREAGUE VA  2148   84 80  230/  5/ 11 1015.0R
THOMAS POINT MD  2200   81 78  210/ 14/ 15   N/A
GOOSES REEF MD   2200   83 79  220/ 10/ 14 1014.5    1
COVE POINT MD    2148   83     240/  7/ 12 1014.6F
SOLOMONS ISLAND  2148   81 75  220/ 10/ 12   N/A
BISHOPS HEAD MD  2148   81 82  200/ 13/ 15 1014.7S
PINEY POINT MD   2148          120/  3/  3   N/A
POTOMAC MD       2200   83 80  240/  6/  8 1013.5    1/ 3
CAMBRIDGE MD     2148   83 82              1014.5F
LEWISETTA VA     2148   85 77  250/ 10/ 12 1014.4R
RAPPAHANNOCK LGT 2148          180/ 11/ 11 1015.9R
YORK RVR RNG VA  2148   82     240/ 12/ 13 1015.8R
YORKTOWN VA      2148   84 75  250/  9/ 12 1015.0R
JAMESTOWN VA     2200   84 82  210/ 10/ 14   N/A
DOMINION TERM VA 2148   81     220/  9/ 11 1015.7F
KIPTOPEKE VA     2148      79  240/ 10/ 12   N/A
CHES BAY BRIDGE  2148   81 73  270/ 10/ 13 1015.3F
CAPE HENRY VA    2148   84     220/  8/ 11   N/A
WILLOUBY STN VA  2148   81     240/ 12/ 13 1015.3F
S CRANEY ISL VA  2148   84     220/  8/ 13 1015.4F
CAPE HENRY BUOY  2130      74                N/A     2/13
1ST LANDING BUOY 2200   82 77              1015.3    1/ 3
CAPE CHARLES BUO 2151      70                N/A     2/13
64NM E OF VA BCH 2150   71 70  200/ 10/ 12 1016.8F   2/ 5   2/ 6
DUCK PIER NC     2148   74 64  170/  7/  9 1016.1F
44100 DUCK FRF   2135      68                N/A     2/13
OREGON INLET NC  2148          210/ 16/ 20 1016.9F
HATTERAS NC      2148   78 79  190/  7/ 13 1017.4F
DIAMOND SHLS NC  2150   78 80  190/ 16/ 17 1017.8F   3/ 7   2/ 7
CAPE LOOKOUT NC  2100   77     170/ 13/ 14 1018.3F
$$




USA.gov is the U.S. government's official web portal to all federal, state and local government web resources and services.